Total_Precipitation_Accumulation
0.30 0.31 0.36 0.47 0.45 0.35 0.38 0.47 0.48 0.52 0.81 0.90 0.76 0.85 0.83 0.75 0.73 0.74 0.84 1.03 1.31 1.34 0.97 0.87 1.06 1.81 1.62 2.06 1.67 1.31 0.63 0.33 0.85 1.79 1.28 1.04 0.73 0.89 0.51 0.23 0.91 0.79 0.52 0.42 0.47 0.38 0.29
0.35 0.35 0.40 0.45 0.40 0.40 0.43 0.59 0.68 0.76 0.89 0.94 1.07 0.91 0.68 0.64 0.70 0.84 1.11 1.46 1.55 1.41 0.84 0.69 1.48 1.72 1.42 1.59 1.36 1.42 0.69 0.53 0.90 1.64 1.38 1.21 0.86 1.36 0.78 0.52 0.67 0.69 0.75 0.57 0.73 0.55 0.43
0.32 0.35 0.41 0.42 0.41 0.48 0.52 0.68 0.76 0.79 1.08 0.97 1.11 0.98 0.73 0.62 0.58 0.70 0.85 1.11 1.51 1.50 1.01 0.99 1.36 1.43 1.56 1.58 1.22 1.59 0.68 0.71 0.88 1.40 1.54 1.15 0.81 1.22 1.27 0.84 0.35 0.77 0.92 1.04 0.93 0.75 0.66
0.36 0.39 0.42 0.39 0.43 0.56 0.71 0.71 0.71 0.78 1.07 1.24 1.24 0.86 0.62 0.60 0.56 0.55 0.57 0.65 0.58 0.81 1.14 1.15 1.57 1.29 1.76 1.70 1.35 1.51 0.94 0.80 0.93 1.40 1.83 1.50 1.01 1.08 1.16 1.24 0.78 0.84 1.51 1.54 1.00 1.27 1.01
0.42 0.44 0.39 0.40 0.48 0.69 0.85 0.72 0.68 0.75 0.90 1.36 1.46 0.88 0.64 0.56 0.52 0.63 0.77 0.84 0.74 0.74 0.99 1.27 1.42 1.65 1.45 1.57 1.02 1.11 1.25 1.15 1.39 1.65 2.45 2.24 1.46 1.20 1.02 1.48 1.68 0.97 1.31 1.12 0.97 1.02 1.41
0.47 0.46 0.43 0.48 0.57 0.71 0.84 0.79 0.72 1.03 1.12 0.99 1.09 0.72 0.57 0.40 0.41 0.64 1.85 1.75 1.83 1.39 1.28 1.49 1.84 2.13 1.67 1.60 1.00 0.87 1.35 1.35 1.76 1.99 3.49 3.73 2.53 1.29 1.12 1.20 1.37 0.69 0.68 0.75 0.78 0.69 1.04
0.49 0.46 0.52 0.53 0.55 0.60 0.76 0.94 0.91 1.32 0.87 0.71 0.61 0.50 0.54 0.48 0.71 1.08 1.83 2.51 2.24 1.67 1.56 2.02 1.98 1.78 1.47 1.06 0.59 0.85 1.15 2.35 2.52 2.58 3.12 3.54 2.47 1.00 0.73 0.74 0.49 0.55 0.43 0.65 0.56 0.55 0.64
0.51 0.48 0.48 0.50 0.58 0.61 0.70 1.00 1.17 0.80 0.70 0.75 0.63 0.62 0.72 0.61 0.70 1.08 1.44 2.31 1.91 1.61 2.43 2.37 1.32 1.19 1.01 0.72 0.99 0.78 1.24 3.57 2.84 2.30 2.43 2.64 1.35 0.41 0.67 0.92 0.49 0.43 0.37 0.74 0.86 0.71 0.73
0.39 0.40 0.46 0.57 0.61 0.64 0.77 1.06 1.07 0.90 0.88 0.80 0.76 0.84 0.71 0.61 0.60 0.74 0.86 1.49 1.47 1.47 2.28 3.08 2.28 1.73 1.25 1.12 1.01 0.97 1.72 3.04 2.31 1.92 1.93 1.55 0.74 0.58 0.81 1.40 0.67 0.35 0.17 0.44 1.26 0.95 0.65
0.33 0.43 0.51 0.55 0.61 0.66 0.79 1.07 0.94 1.04 1.05 0.87 0.82 0.82 0.71 0.71 0.65 0.66 0.81 1.30 1.40 1.46 2.19 3.58 2.32 2.01 1.35 1.25 1.22 0.81 1.54 2.23 2.21 1.91 2.24 1.89 0.66 0.56 0.88 1.57 0.86 0.62 0.15 0.48 0.87 0.76 0.62
0.31 0.39 0.42 0.48 0.58 0.65 0.96 0.99 0.92 0.89 1.01 0.73 0.65 0.55 0.59 0.82 0.92 1.02 0.92 0.90 1.35 1.59 2.63 3.21 2.27 1.68 1.39 1.07 0.96 1.04 1.42 1.55 1.09 1.35 1.88 1.69 0.91 0.76 0.94 0.95 0.74 0.66 0.33 0.80 0.93 0.62 0.57
0.32 0.38 0.45 0.55 0.58 0.70 0.94 0.98 0.89 0.83 0.74 0.67 0.62 0.55 0.72 0.76 0.94 0.74 0.64 1.11 1.30 1.66 2.78 3.08 2.23 1.62 1.01 0.73 0.74 1.05 1.48 1.13 0.98 1.09 1.05 0.92 0.93 0.93 0.78 0.52 0.27 0.24 0.29 0.76 1.23 0.97 0.98
0.30 0.37 0.48 0.56 0.56 0.72 1.02 1.03 0.84 0.99 0.91 0.96 0.96 0.63 0.80 0.69 0.62 0.53 0.96 1.63 1.60 1.42 1.68 1.48 1.36 0.71 0.47 0.55 0.53 0.58 1.00 0.93 0.94 1.20 1.58 1.50 1.24 0.90 0.77 0.36 0.24 0.29 0.69 1.57 1.69 1.51 0.77
0.36 0.46 0.63 0.65 0.71 0.84 1.17 1.11 0.98 1.23 1.41 1.58 1.48 0.96 0.58 0.46 0.48 0.93 1.49 1.32 1.50 1.16 1.11 0.59 0.45 0.53 0.46 0.30 0.44 0.40 0.54 0.51 0.25 0.19 0.90 1.60 2.00 1.15 0.63 0.28 0.34 0.35 0.65 1.15 1.20 0.57 0.50
0.47 0.67 0.86 0.98 1.00 1.10 1.32 1.30 1.23 1.41 1.38 1.49 1.08 0.97 0.54 0.32 0.50 1.21 1.30 1.37 1.30 0.97 0.62 0.21 0.31 0.42 0.45 0.18 0.21 0.30 0.39 0.28 0.17 0.16 0.58 0.68 1.17 0.58 0.28 0.08 0.16 0.33 0.48 0.39 0.55 0.29 0.43
0.71 0.99 1.11 1.11 1.06 0.89 0.96 1.15 1.11 1.52 1.33 1.22 0.81 0.70 0.75 0.46 0.69 1.22 1.12 1.32 0.62 0.43 0.09 0.02 0.19 0.15 0.13 0.10 0.09 0.11 0.19 0.12 0.09 0.08 0.10 0.17 0.60 0.30 0.16 0.13 0.07 0.07 0.14 0.30 0.59 0.73 0.49
1.08 1.06 1.03 0.98 0.99 0.87 0.77 0.90 1.09 1.40 1.34 0.77 0.78 0.86 1.20 0.82 1.10 1.39 1.16 1.08 0.49 0.18 0.05 0.05 0.03 0.01 0.01 0.03 0.03 0.03 0.07 0.11 0.05 0.06 0.02 0.01 0.19 0.30 0.23 0.26 0.10 0.04 0.14 0.17 0.30 0.59 0.76
1.04 1.11 1.13 1.08 1.13 1.08 0.96 1.05 1.34 1.45 1.42 0.89 0.96 1.23 1.29 0.87 1.14 1.17 1.06 0.77 0.56 0.17 0.03 0.00 0.01 0.01 0.01 0.01 0.00 0.01 0.02 0.02 0.01 0.00 0.00 0.00 0.05 0.11 0.14 0.03 0.01 0.02 0.01 0.04 0.32 0.31 0.50
1.18 1.25 1.23 1.34 1.33 1.26 1.19 1.38 1.47 1.55 1.28 1.02 0.95 1.29 1.19 0.68 0.66 0.58 0.46 0.32 0.14 0.08 0.04 0.01 0.01 0.02 0.02 0.01 0.01 0.01 0.00 0.00 0.00 0.00 0.00 0.00 0.05 0.15 0.19 0.16 0.06 0.06 0.02 0.10 0.21 0.48 0.35
0.95 1.16 1.25 1.32 1.28 1.24 1.20 1.17 1.16 1.64 1.01 1.00 1.16 1.29 1.17 0.79 0.33 0.15 0.31 0.22 0.13 0.09 0.02 0.00 0.00 0.00 0.00 0.00 0.00 0.00 0.00 0.00 0.00 0.00 0.00 0.01 0.03 0.06 0.12 0.10 0.20 0.18 0.03 0.10 0.42 0.59 0.14
0.84 1.00 1.23 1.27 1.43 1.30 1.06 1.03 1.08 1.08 0.95 1.19 0.95 0.49 0.35 0.36 0.13 0.12 0.17 0.18 0.12 0.05 0.01 0.00 0.01 0.00 0.00 0.01 0.00 0.00 0.00 0.00 0.00 0.00 0.01 0.04 0.05 0.02 0.02 0.06 0.22 0.20 0.08 0.07 0.32 0.17 0.24
1.28 1.11 1.17 1.32 1.51 1.73 1.68 1.50 1.17 0.98 0.99 1.18 0.65 0.30 0.16 0.03 0.06 0.10 0.05 0.09 0.05 0.00 0.01 0.01 0.01 0.00 0.01 0.01 0.01 0.00 0.00 0.00 0.01 0.00 0.02 0.05 0.09 0.06 0.06 0.05 0.10 0.16 0.04 0.06 0.06 0.02 0.02
1.55 1.53 1.64 1.70 1.53 1.58 1.62 1.58 1.44 1.11 1.17 0.87 0.59 0.18 0.06 0.06 0.05 0.03 0.02 0.00 0.01 0.00 0.01 0.01 0.01 0.03 0.02 0.01 0.00 0.00 0.00 0.00 0.00 0.01 0.03 0.06 0.08 0.15 0.07 0.04 0.11 0.13 0.04 0.02 0.01 0.00 0.01
1.62 1.74 1.53 1.46 1.12 1.13 1.41 1.29 0.96 0.77 0.80 0.45 0.35 0.17 0.03 0.05 0.01 0.00 0.00 0.00 0.00 0.00 0.01 0.00 0.00 0.04 0.03 0.01 0.01 0.01 0.00 0.00 0.01 0.00 0.01 0.02 0.06 0.19 0.09 0.09 0.24 0.13 0.02 0.00 0.00 0.00 0.00
1.30 1.87 2.10 2.04 1.80 1.59 1.42 1.20 1.01 0.91 0.68 0.18 0.21 0.15 0.07 0.02 0.00 0.00 0.00 0.00 0.00 0.00 0.00 0.00 0.00 0.00 0.01 0.02 0.05 0.05 0.02 0.01 0.00 0.00 0.01 0.01 0.06 0.18 0.16 0.17 0.09 0.01 0.00 0.00 0.00 0.00 0.00
0.99 1.24 1.89 2.32 2.12 1.86 1.94 1.66 1.22 0.86 0.43 0.07 0.11 0.19 0.15 0.04 0.00 0.00 0.00 0.00 0.00 0.00 0.02 0.02 0.03 0.01 0.01 0.06 0.15 0.10 0.04 0.01 0.01 0.02 0.01 0.02 0.03 0.16 0.10 0.09 0.01 0.01 0.00 0.00 0.02 0.01 0.00
0.87 0.85 1.03 1.42 1.90 1.43 1.09 1.15 1.11 0.78 0.42 0.04 0.08 0.14 0.22 0.07 0.01 0.00 0.00 0.00 0.00 0.01 0.02 0.02 0.06 0.02 0.03 0.11 0.17 0.08 0.02 0.00 0.01 0.01 0.03 0.07 0.10 0.15 0.14 0.15 0.00 0.00 0.00 0.00 0.00 0.01 0.00
1.17 1.20 1.23 1.34 1.56 1.80 1.67 0.99 0.74 0.63 0.43 0.10 0.06 0.09 0.22 0.12 0.02 0.00 0.00 0.01 0.01 0.02 0.03 0.01 0.02 0.02 0.06 0.14 0.13 0.07 0.03 0.01 0.00 0.00 0.00 0.02 0.04 0.06 0.07 0.09 0.01 0.00 0.00 0.00 0.00 0.00 0.00
1.18 1.23 1.38 1.43 1.53 1.76 1.83 1.45 0.94 0.62 0.43 0.20 0.06 0.08 0.15 0.14 0.04 0.00 0.00 0.00 0.00 0.01 0.01 0.00 0.03 0.01 0.04 0.12 0.16 0.10 0.04 0.01 0.00 0.00 0.00 0.00 0.00 0.00 0.00 0.00 0.00 0.00 0.00 0.00 0.00 0.00 0.00